Stündliche Wetter Abrucena

Heute, 23 Juni, Mittwoch

Zeit Temperatur Niederschläge Wind Luftdruck Luftfeuchtigkeit
00:00 +13°C° 0 mm 2 m/S 616 mmHg 49%
01:00 +12°C° 0 mm 2 m/S 616 mmHg 51%
02:00 +12°C° 0 mm 2 m/S 616 mmHg 53%
03:00 +11°C° 0 mm 1 m/S 615 mmHg 55%
04:00 +12°C° 0 mm 1 m/S 616 mmHg 55%
05:00 +12°C° 0 mm 1 m/S 616 mmHg 55%
06:00 +12°C° 0 mm 1 m/S 616 mmHg 54%
07:00 +13°C° 0 mm 1 m/S 617 mmHg 50%
08:00 +15°C° 0 mm 1 m/S 617 mmHg 46%
09:00 +16°C° 0 mm 1 m/S 618 mmHg 42%
10:00 +17°C° 0 mm 2 m/S 618 mmHg 39%
11:00 +18°C° 0 mm 2 m/S 618 mmHg 37%
12:00 +19°C° 0 mm 3 m/S 619 mmHg 35%
13:00 +19°C° 0 mm 3 m/S 619 mmHg 36%
14:00 +19°C° 0 mm 3 m/S 618 mmHg 36%
15:00 +20°C° 0 mm 3 m/S 618 mmHg 37%
16:00 +19°C° 0 mm 3 m/S 618 mmHg 39%
17:00 +18°C° 0 mm 3 m/S 618 mmHg 41%
18:00 +18°C° 0 mm 3 m/S 618 mmHg 43%
19:00 +17°C° 0 mm 2 m/S 618 mmHg 48%
20:00 +16°C° 0 mm 2 m/S 618 mmHg 53%
21:00 +15°C° 0 mm 1 m/S 618 mmHg 59%
22:00 +14°C° 0 mm 1 m/S 618 mmHg 60%
23:00 +14°C° 0 mm 1 m/S 618 mmHg 62%

Morgen, 24 Juni, Donnerstag

Zeit Temperatur Niederschläge Wind Luftdruck Luftfeuchtigkeit
00:00 +13°C° 0 mm 1 m/S 618 mmHg 63%
01:00 +13°C° 0 mm 1 m/S 618 mmHg 66%
02:00 +12°C° 0 mm 2 m/S 617 mmHg 69%
03:00 +12°C° 0 mm 2 m/S 617 mmHg 72%
04:00 +12°C° 0 mm 2 m/S 617 mmHg 74%
05:00 +12°C° 0 mm 2 m/S 618 mmHg 75%
06:00 +12°C° 0 mm 2 m/S 618 mmHg 77%
07:00 +13°C° 0 mm 2 m/S 618 mmHg 69%
08:00 +14°C° 0 mm 3 m/S 619 mmHg 61%
09:00 +16°C° 0 mm 3 m/S 620 mmHg 53%
10:00 +17°C° 0 mm 3 m/S 620 mmHg 49%
11:00 +19°C° 0 mm 4 m/S 621 mmHg 44%
12:00 +20°C° 0 mm 4 m/S 621 mmHg 39%
13:00 +20°C° 0 mm 4 m/S 621 mmHg 39%
14:00 +21°C° 0 mm 4 m/S 621 mmHg 38%
15:00 +22°C° 0 mm 4 m/S 621 mmHg 37%
16:00 +21°C° 0 mm 4 m/S 620 mmHg 42%
17:00 +20°C° 0 mm 4 m/S 620 mmHg 47%
18:00 +19°C° 0 mm 4 m/S 620 mmHg 52%
19:00 +18°C° 0 mm 3 m/S 620 mmHg 59%
20:00 +16°C° 0 mm 3 m/S 620 mmHg 65%
21:00 +15°C° 0 mm 2 m/S 620 mmHg 72%
22:00 +15°C° 0 mm 2 m/S 620 mmHg 73%
23:00 +14°C° 0 mm 2 m/S 619 mmHg 74%

übermorgen, 25 Juni, Freitag

Zeit Temperatur Niederschläge Wind Luftdruck Luftfeuchtigkeit
00:00 +14°C° 0 mm 2 m/S 619 mmHg 76%
01:00 +14°C° 0 mm 2 m/S 619 mmHg 75%
02:00 +13°C° 0 mm 2 m/S 619 mmHg 75%
03:00 +13°C° 0 mm 2 m/S 619 mmHg 75%
04:00 +13°C° 0 mm 2 m/S 619 mmHg 70%
05:00 +13°C° 0 mm 2 m/S 619 mmHg 65%
06:00 +13°C° 0 mm 2 m/S 619 mmHg 60%
07:00 +15°C° 0 mm 2 m/S 620 mmHg 52%
08:00 +17°C° 0 mm 3 m/S 620 mmHg 44%
09:00 +19°C° 0 mm 3 m/S 621 mmHg 35%
10:00 +20°C° 0 mm 3 m/S 621 mmHg 33%
11:00 +21°C° 0 mm 4 m/S 621 mmHg 31%
12:00 +22°C° 0 mm 4 m/S 621 mmHg 30%
13:00 +22°C° 0 mm 4 m/S 621 mmHg 31%
14:00 +23°C° 0 mm 4 m/S 621 mmHg 33%
15:00 +23°C° 0 mm 4 m/S 621 mmHg 34%
16:00 +22°C° 0 mm 4 m/S 620 mmHg 37%
17:00 +21°C° 0 mm 3 m/S 620 mmHg 40%
18:00 +21°C° 0 mm 3 m/S 620 mmHg 43%
19:00 +20°C° 0 mm 2 m/S 619 mmHg 48%
20:00 +18°C° 0 mm 2 m/S 619 mmHg 53%
21:00 +17°C° 0 mm 2 m/S 619 mmHg 58%
22:00 +16°C° 0 mm 2 m/S 619 mmHg 62%
23:00 +16°C° 0 mm 1 m/S 619 mmHg 66%

26 Juni, Samstag

Zeit Temperatur Niederschläge Wind Luftdruck Luftfeuchtigkeit
00:00 +15°C° 0 mm 1 m/S 619 mmHg 70%
01:00 +15°C° 0 mm 1 m/S 618 mmHg 68%
02:00 +14°C° 0 mm 1 m/S 618 mmHg 66%
03:00 +14°C° 0 mm 1 m/S 618 mmHg 64%
04:00 +15°C° 0 mm 1 m/S 618 mmHg 58%
05:00 +15°C° 0 mm 1 m/S 618 mmHg 53%
06:00 +15°C° 0 mm 0 m/S 618 mmHg 48%
07:00 +18°C° 0 mm 1 m/S 619 mmHg 42%
08:00 +20°C° 0 mm 1 m/S 619 mmHg 37%
09:00 +20°C° 0 mm 2 m/S 620 mmHg 32%
10:00 +21°C° 0 mm 2 m/S 620 mmHg 31%
11:00 +23°C° 0 mm 2 m/S 620 mmHg 30%
12:00 +24°C° 0 mm 3 m/S 620 mmHg 29%
13:00 +25°C° 0 mm 3 m/S 620 mmHg 30%
14:00 +25°C° 0 mm 3 m/S 620 mmHg 31%
15:00 +25°C° 0 mm 3 m/S 620 mmHg 32%
16:00 +25°C° 0 mm 3 m/S 620 mmHg 34%
17:00 +24°C° 0 mm 3 m/S 619 mmHg 36%
18:00 +24°C° 0 mm 3 m/S 619 mmHg 38%
19:00 +21°C° 0 mm 2 m/S 619 mmHg 41%
20:00 +20°C° 0 mm 2 m/S 619 mmHg 44%
21:00 +20°C° 0 mm 1 m/S 619 mmHg 48%
22:00 +19°C° 0 mm 1 m/S 619 mmHg 48%
23:00 +19°C° 0 mm 1 m/S 618 mmHg 49%

27 Juni, Sonntag

Zeit Temperatur Niederschläge Wind Luftdruck Luftfeuchtigkeit
00:00 +18°C° 0 mm 1 m/S 618 mmHg 50%
01:00 +18°C° 0 mm 1 m/S 618 mmHg 49%
02:00 +18°C° 0 mm 1 m/S 617 mmHg 48%
03:00 +16°C° 0 mm 1 m/S 617 mmHg 47%
04:00 +16°C° 0 mm 1 m/S 617 mmHg 47%
05:00 +18°C° 0 mm 1 m/S 617 mmHg 47%
06:00 +17°C° 0 mm 2 m/S 618 mmHg 46%
07:00 +19°C° 0 mm 1 m/S 618 mmHg 42%
08:00 +21°C° 0 mm 1 m/S 619 mmHg 37%
09:00 +23°C° 0 mm 1 m/S 619 mmHg 32%
10:00 +24°C° 0 mm 2 m/S 619 mmHg 30%
11:00 +25°C° 0 mm 2 m/S 620 mmHg 28%
12:00 +26°C° 0 mm 3 m/S 620 mmHg 25%
13:00 +26°C° 0 mm 3 m/S 620 mmHg 25%
14:00 +27°C° 0 mm 4 m/S 620 mmHg 24%
15:00 +27°C° 0 mm 4 m/S 620 mmHg 23%
16:00 +27°C° 0 mm 4 m/S 620 mmHg 23%
17:00 +26°C° 0 mm 4 m/S 619 mmHg 24%
18:00 +25°C° 0 mm 4 m/S 619 mmHg 24%
19:00 +24°C° 0 mm 3 m/S 619 mmHg 26%
20:00 +21°C° 0 mm 3 m/S 619 mmHg 27%
21:00 +20°C° 0 mm 2 m/S 619 mmHg 28%
22:00 +20°C° 0 mm 2 m/S 619 mmHg 27%
23:00 +19°C° 0 mm 2 m/S 619 mmHg 27%

28 Juni, Montag

Zeit Temperatur Niederschläge Wind Luftdruck Luftfeuchtigkeit
00:00 +18°C° 0 mm 2 m/S 618 mmHg 26%
01:00 +18°C° 0 mm 2 m/S 618 mmHg 26%
02:00 +18°C° 0 mm 2 m/S 618 mmHg 26%
03:00 +17°C° 0 mm 2 m/S 618 mmHg 26%
04:00 +17°C° 0 mm 2 m/S 618 mmHg 27%
05:00 +17°C° 0 mm 2 m/S 618 mmHg 28%
06:00 +17°C° 0 mm 2 m/S 618 mmHg 30%
07:00 +19°C° 0 mm 2 m/S 619 mmHg 27%
08:00 +22°C° 0 mm 1 m/S 619 mmHg 24%
09:00 +23°C° 0 mm 1 m/S 620 mmHg 21%
10:00 +24°C° 0 mm 2 m/S 620 mmHg 20%
11:00 +25°C° 0 mm 3 m/S 621 mmHg 18%
12:00 +27°C° 0 mm 3 m/S 621 mmHg 17%
13:00 +27°C° 0 mm 3 m/S 621 mmHg 18%
14:00 +27°C° 0 mm 4 m/S 621 mmHg 18%
15:00 +27°C° 0 mm 4 m/S 620 mmHg 19%
16:00 +26°C° 0 mm 4 m/S 620 mmHg 20%
17:00 +25°C° 0 mm 4 m/S 620 mmHg 22%
18:00 +25°C° 0 mm 3 m/S 620 mmHg 23%
19:00 +22°C° 0 mm 3 m/S 620 mmHg 24%
20:00 +21°C° 0 mm 2 m/S 620 mmHg 26%
21:00 +19°C° 0 mm 2 m/S 620 mmHg 27%
22:00 +19°C° 0 mm 2 m/S 620 mmHg 27%
23:00 +18°C° 0 mm 2 m/S 619 mmHg 28%
Mehr zeigen

Wir brauchen deine Erlaubnis

Meteoprog und unser Service Anbieter werden persönliche Daten aufbewahren, so wie Cookies, Geräte Bezeichnung oder ähnliche Technologien von deinem Gerät und Prozess, so wie Persönliche Daten Inhalte und Werbungen, genauso wie social Media und den Verkehr zu analysieren.

  • Aufbewahrung und/oder Zugang zu deiner Geräte Informationen.

    Cookies, Geräte Bezeichnung oder andere Informationen, können aufbewahrt oder Zugang zu deinem Gerät erhalten, für den Grund, der oben angegeben wird.

  • Personalisierte Werbung und Inhalte, Messungen, Einblick in das Publikum und Produkt Entwicklung.

    Werbungen und Inhalte können personalisiert werden, basierend auf ein Profil. Mehr Daten können besser personalisierte Werbungen und Inhalte hinzufügen. Werbung und Inhalte können gezeigt und gemessen werden. Einblicke über das Publikum, welche die Werbung gesehen haben und den Inhalt, können abgeleitet werden. So wie Daten können genutzt werden, um es zu verbessern oder die Benutzer Erfahrung zu verbessern das System und die Software.

Wenn du “Ich stimme zu” klickst, erlaubst du uns, die Cookies zu benutzen die Geräte Bezeichnung, den Web oder ähnliche Technologien zu benutzen. Deine Settings, können in deinem Gerät bei deinem Browser geändert werden.

Für den bestimmten Zweck, berechtigten Interessen beruhen darauf, mehr als auf den Inhalt. Du kannst mehr darüber in unseren Privaten und Cookie Politik lesen.